SCP
0 0 0 0 0 0 0 0 0 0 0 0 0 0 -0 0 -1 -0 -0 0 0 0 0 -0 -0 0 0 -0 -0 -0 0 0 0 0 0 0 0 0 0 0 0 0 0 -0
0 0 0 0 0 0 0 0 0 0 0 0 0 0 0 0 -0 -0 0 0 0 0 -0 -0 -0 -0 -0 -0 0 0 0 0 0 0 0 0 0 0 0 0 0 0 0 0
0 0 0 0 0 0 0 0 0 0 0 0 0 0 0 0 0 -0 -0 0 0 0 0 0 0 0 0 0 0 0 0 0 0 0 0 0 0 0 0 0 0 0 0 0
0 0 0 0 0 0 0 0 0 0 0 0 0 0 0 0 0 0 0 0 0 0 0 0 0 0 0 0 0 0 0 0 0 0 0 0 0 0 0 0 0 0 0 0
0 0 0 0 0 1 0 0 0 0 0 0 0 0 0 0 0 0 0 0 0 0 0 0 0 0 0 0 0 0 0 0 0 0 0 0 0 0 0 0 0 0 0 0
0 0 0 0 1 1 1 0 0 0 0 0 0 0 0 0 0 0 0 0 0 0 0 0 0 0 0 0 0 0 0 0 0 0 0 0 0 0 0 0 0 0 0 0
0 0 0 0 1 1 0 0 1 0 0 0 0 0 0 0 0 0 0 0 0 0 0 0 0 0 0 0 0 0 0 0 0 0 0 0 0 0 0 0 0 0 0 0
0 0 0 1 1 1 1 1 1 0 0 0 0 0 0 0 0 0 0 0 0 0 0 0 0 0 0 0 0 0 0 0 0 0 0 0 0 0 0 0 0 0 0 0
0 0 1 0 1 1 1 0 1 1 0 0 0 0 0 0 0 0 0 0 0 0 0 0 0 0 0 0 0 0 0 0 0 0 0 0 0 0 0 0 0 0 0 0
1 0 1 1 1 0 1 1 1 0 0 0 0 0 0 0 0 0 0 0 0 0 0 0 0 0 0 0 0 0 0 0 0 0 0 0 0 0 0 0 0 0 0 0
0 0 0 0 0 1 1 0 0 0 0 0 0 0 0 0 0 0 0 0 0 0 0 0 0 0 0 0 0 0 0 0 0 0 0 0 0 0 0 0 0 0 0 0
1 0 0 0 0 0 1 0 0 0 0 0 0 0 0 0 0 0 0 0 0 0 0 0 0 0 0 0 0 0 0 0 0 0 0 0 0 0 0 0 0 0 0 0
0 0 0 0 0 0 0 0 0 0 0 0 0 0 0 0 0 0 0 0 0 0 0 0 0 0 0 0 0 0 0 0 0 0 0 0 0 0 0 0 0 0 0 0
0 0 1 0 0 0 0 0 0 0 0 0 0 0 0 0 0 0 0 0 0 0 0 0 0 0 0 0 0 0 0 0 0 0 0 0 0 0 0 0 0 0 0 0
0 0 0 0 0 0 0 0 0 0 0 0 0 0 0 0 0 0 0 0 0 0 0 0 0 0 0 0 0 0 0 0 0 0 0 0 0 0 0 0 0 0 0 0
0 0 0 0 0 0 0 0 0 0 0 0 0 0 0 0 0 0 0 0 0 0 0 0 0 0 0 0 0 0 0 0 0 0 0 0 0 0 0 0 0 0 0 0
0 0 0 0 0 0 0 0 0 0 0 0 0 0 0 0 0 0 0 0 0 0 0 0 0 0 0 0 0 0 0 0 0 0 0 0 0 0 0 0 0 0 0 0
0 0 0 0 0 0 0 0 0 0 0 0 0 0 0 0 0 0 0 0 0 0 0 0 0 0 0 0 0 0 0 0 0 0 0 0 0 0 0 0 0 0 0 0
0 0 0 0 0 0 0 0 0 0 0 0 0 0 0 0 0 0 0 0 0 0 0 0 0 0 -0 -0 -0 -0 0 0 0 0 0 0 0 0 0 0 0 0 0 0
0 0 0 0 0 0 0 0 0 0 0 0 0 0 0 0 0 0 0 0 0 0 0 0 0 0 0 0 0 0 0 0 0 0 0 0 0 0 0 0 0 0 0 0
0 0 0 0 0 0 0 0 0 0 0 0 0 0 0 0 0 0 0 0 0 0 0 0 0 0 0 0 0 0 0 0 0 0 0 0 0 0 0 0 0 0 0 0
0 0 0 0 0 0 0 0 0 0 0 0 0 0 0 0 0 0 0 0 0 0 0 0 0 0 0 0 0 0 0 0 0 0 0 0 0 0 0 0 0 0 0 0
0 0 0 0 0 0 0 0 0 0 0 0 0 0 0 0 0 0 0 0 0 0 0 0 0 0 0 0 0 0 0 0 0 0 0 0 0 0 0 0 0 0 0 0
0 0 0 0 0 0 0 0 0 0 0 0 0 0 0 0 0 0 0 0 0 0 0 0 0 0 0 0 0 0 0 0 0 0 0 0 0 0 0 0 0 0 0 0
0 0 0 0 0 0 0 0 0 0 0 0 0 0 0 0 0 0 0 0 0 0 0 0 0 0 0 0 0 0 0 0 0 0 0 0 0 0 0 0 0 0 0 0
0 0 0 0 0 0 0 0 0 0 0 0 0 0 0 0 0 0 0 0 0 0 0 0 0 0 0 0 0 0 0 0 0 0 0 0 0 0 0 0 0 0 0 0
-0 0 0 0 0 0 0 0 0 0 0 0 0 0 0 0 0 0 0 0 0 0 0 0 -0 -0 0 0 0 0 0 0 0 0 0 0 0 0 0 0 0 0 0 0
Wind_Speed_500mb
21 18 16 9 16 19 14 11 8 8 14 16 10 9 31 29 37 45 43 41 49 32 45 38 33 29 25 21 22 22 21 18 14 12 12 6 3 1 4 8 11 14 15 16
8 7 19 21 26 21 15 11 10 7 15 9 5 8 28 27 33 37 40 42 43 33 33 34 34 33 29 28 29 32 30 26 24 24 21 13 7 6 7 6 7 11 11 13
9 5 8 9 26 26 16 16 10 13 7 5 2 13 28 31 32 34 39 42 42 40 36 34 31 31 32 28 33 37 38 37 37 34 30 23 13 13 11 8 6 7 9 10
4 5 12 4 7 9 16 7 14 16 7 7 6 13 23 22 31 35 41 46 41 41 37 35 35 31 28 25 28 28 32 41 44 42 39 31 22 20 16 12 9 6 6 7
7 16 5 7 5 3 7 13 8 8 5 8 24 23 12 19 25 36 42 43 39 37 34 28 26 23 19 19 19 26 29 31 39 44 38 37 28 26 22 17 13 11 9 9
5 14 21 7 8 7 3 10 10 8 13 23 26 17 12 25 32 42 45 42 38 36 30 24 23 17 17 14 19 22 24 26 27 34 36 41 35 31 27 22 16 11 11 12
14 11 6 1 8 4 16 2 5 6 16 30 21 3 24 32 35 37 39 38 35 29 22 17 12 12 12 12 12 9 7 9 12 26 37 43 39 33 29 25 21 16 13 15
8 13 19 5 3 10 9 15 8 7 18 25 25 25 39 35 39 40 39 36 30 24 19 14 13 11 9 10 5 2 1 0 5 18 29 38 39 33 32 29 25 21 19 15
9 6 5 6 11 14 17 21 9 10 21 33 36 39 43 42 39 34 31 29 23 18 13 12 13 11 9 6 4 4 6 6 6 4 15 23 36 35 40 35 31 28 21 20
5 4 8 10 10 9 15 15 12 13 27 29 29 37 47 44 37 32 29 24 20 17 15 14 12 10 8 8 9 11 9 8 6 9 9 12 20 20 18 14 13 16 18 18
7 12 12 10 4 11 9 5 6 18 21 22 29 38 43 42 35 28 22 21 18 15 13 12 12 11 11 13 15 13 14 15 15 13 12 10 14 16 16 19 16 13 14 12
3 12 6 6 2 8 8 7 10 16 19 17 26 41 35 31 25 20 21 20 19 16 14 16 15 15 17 19 21 18 20 24 25 25 23 21 16 16 15 15 15 18 17 13
11 22 12 12 2 5 4 3 7 9 10 24 26 25 26 25 21 18 18 20 19 20 22 20 20 20 22 24 26 27 28 30 30 29 28 26 24 19 16 20 19 19 20 19
16 9 3 8 6 5 4 5 7 9 14 18 19 22 20 17 15 14 17 20 21 23 23 19 21 21 24 28 30 32 37 37 37 36 34 31 28 24 20 16 13 15 18 20
15 16 7 8 7 5 1 6 6 9 17 22 22 19 17 15 16 16 22 22 24 23 21 20 22 29 34 39 41 44 44 44 44 44 43 39 36 33 27 20 14 12 15 16
29 17 12 7 4 5 4 5 5 9 17 20 19 17 15 17 20 21 22 21 24 22 22 26 33 39 44 45 46 45 43 42 41 39 37 34 30 27 27 24 15 9 11 12
17 16 14 9 8 10 10 7 8 11 16 18 18 16 17 22 23 22 23 22 21 22 30 35 39 41 43 42 39 36 33 30 26 23 20 18 16 13 13 13 13 9 6 11
20 23 27 25 19 17 15 15 11 17 17 17 17 16 19 22 24 24 22 21 28 34 35 38 36 36 38 36 31 24 19 15 12 9 8 9 9 10 9 7 5 4 2 7
21 28 32 32 31 26 19 20 22 22 23 24 20 17 19 23 26 28 27 28 35 38 41 40 36 33 30 27 22 15 8 0 5 9 13 17 20 18 17 14 13 12 12 11
23 26 34 42 41 33 24 22 25 27 32 31 26 25 27 27 30 31 30 30 32 31 42 39 35 28 22 16 12 11 12 12 13 18 23 28 31 29 25 20 17 14 16 15
28 23 26 28 32 32 26 22 25 28 35 38 31 28 28 30 32 34 35 33 39 41 41 35 28 21 15 12 13 13 15 19 20 20 26 30 34 36 31 28 25 22 19 21
26 25 23 22 27 28 18 14 19 23 29 40 35 29 32 36 38 35 33 37 44 43 38 32 28 22 15 13 6 5 6 12 17 20 23 27 30 30 25 26 27 28 32 35
24 22 17 22 27 24 21 25 28 27 32 34 38 34 34 36 37 37 43 40 37 34 34 33 34 30 24 10 5 8 14 19 22 22 20 22 20 8 4 7 14 23 31 35
9 18 27 31 30 23 18 18 21 21 24 31 35 32 28 33 38 35 35 35 33 32 33 34 31 28 22 4 4 9 11 15 18 20 19 14 9 10 17 22 24 26 31 33
21 34 44 45 44 34 26 33 34 30 28 26 24 21 18 18 30 39 41 35 33 34 28 21 20 17 7 6 6 9 13 14 17 16 14 12 16 19 23 27 30 31 31 31
53 55 42 31 33 31 27 24 41 36 24 32 27 21 18 21 31 36 34 34 28 22 22 16 14 8 10 2 10 13 17 17 15 15 15 18 21 25 25 24 26 26 27 28
42 29 31 26 3 19 29 37 40 37 33 37 50 46 39 32 28 23 19 14 14 13 15 19 15 12 7 7 12 16 17 16 19 18 20 26 31 35 36 35 36 37 38 37
Wind_Direction_500mb
259 247 253 240 184 189 209 165 233 172 211 266 337 240 200 181 168 165 165 166 169 187 170 181 188 196 206 211 212 211 201 191 193 215 240 252 297 46 124 88 71 66 71 75
273 264 219 232 222 201 232 184 269 235 259 268 48 143 175 178 175 174 170 174 182 184 184 188 199 214 220 223 228 231 225 213 214 228 238 235 218 202 179 129 83 77 76 77
252 347 144 226 229 207 207 191 195 204 249 354 81 200 169 168 178 167 164 173 182 188 194 203 212 219 229 223 225 232 233 231 231 228 235 232 219 208 193 168 136 110 102 93
237 208 216 56 318 242 226 218 210 280 315 308 85 120 136 166 172 164 173 181 182 188 197 206 219 220 231 228 232 234 239 233 236 239 228 225 222 210 200 186 170 154 138 123
237 212 312 158 111 206 226 187 208 240 127 133 140 130 99 156 168 172 177 181 178 184 191 198 210 219 236 259 255 249 243 243 236 240 229 220 221 213 200 195 188 175 164 128
174 232 223 183 133 11 245 227 165 193 164 161 170 193 156 158 174 170 172 178 178 184 188 205 213 222 235 236 242 243 243 244 239 236 225 217 218 214 206 197 195 184 161 155
214 246 264 128 338 135 200 234 10 221 188 172 175 257 161 163 160 166 170 172 176 181 187 195 203 211 218 221 222 223 242 252 226 220 222 218 213 213 209 209 203 194 192 174
195 223 244 40 197 225 351 319 315 199 171 154 145 146 154 161 163 167 164 162 170 176 180 182 189 190 196 197 186 133 161 306 205 222 220 212 216 211 210 209 203 198 192 185
237 210 26 315 287 299 304 279 293 210 176 166 152 152 159 159 164 165 165 165 167 175 178 171 174 175 172 156 108 92 89 104 127 195 212 216 214 213 205 198 198 194 191 178
275 175 275 301 296 309 309 276 279 215 177 175 166 161 165 160 161 163 158 158 165 167 165 160 147 137 130 111 98 86 92 104 120 164 179 204 201 188 191 201 202 190 176 167
271 277 291 263 292 339 351 10 174 168 168 174 165 157 160 162 162 159 160 160 158 157 148 138 128 120 115 112 102 93 99 103 105 111 116 140 164 166 166 166 161 163 166 166
339 332 300 345 33 7 28 62 133 164 164 164 166 159 164 158 157 158 158 157 149 139 128 124 117 110 110 111 105 108 115 116 113 110 112 116 117 136 145 150 160 154 152 157
291 320 275 320 44 355 350 38 92 121 152 153 157 162 158 157 155 156 154 147 140 132 121 117 117 118 113 116 116 118 120 116 111 111 112 109 107 105 120 123 124 137 141 140
339 357 332 22 5 39 54 133 126 138 151 160 160 157 159 161 155 151 150 144 138 135 131 133 127 121 126 123 121 118 113 110 108 103 98 94 92 94 98 103 123 136 138 144
324 304 308 343 339 350 83 160 137 165 167 161 163 168 174 177 161 154 159 149 143 139 139 138 136 131 126 121 120 116 111 105 100 94 90 88 85 81 78 84 105 129 142 149
299 300 248 278 349 1 279 224 193 176 175 176 175 172 173 166 159 155 166 157 155 154 155 147 138 132 129 127 124 117 111 104 99 94 89 84 80 76 70 66 71 107 147 162
300 284 280 294 325 308 341 309 237 210 189 193 185 179 171 161 155 160 163 159 162 158 146 142 137 133 134 133 127 122 117 110 99 88 81 75 69 59 53 53 53 69 170 176
278 262 268 276 281 303 283 260 217 203 206 197 193 186 176 172 167 163 163 160 152 149 147 144 142 138 140 143 140 132 123 111 98 77 43 14 353 345 340 324 303 351 287 220
277 265 264 270 273 266 274 249 234 222 211 205 196 187 175 174 174 171 172 165 157 157 157 156 153 150 148 148 149 149 151 169 321 324 322 314 308 303 302 301 279 266 260 260
279 266 261 260 258 251 254 251 242 237 217 199 188 181 175 174 177 175 177 168 168 169 164 161 159 158 161 173 194 224 248 269 288 307 313 311 302 292 286 275 271 265 254 252
279 265 264 256 238 225 239 247 245 225 212 192 188 182 175 174 175 180 174 171 170 169 167 169 170 177 197 229 252 267 266 277 280 286 295 299 296 296 272 265 263 261 259 256
280 271 270 253 214 208 220 211 190 187 197 182 180 179 175 175 177 180 182 180 173 175 178 184 191 200 213 220 259 271 291 290 294 301 307 313 309 296 283 267 265 276 278 275
270 261 234 191 182 180 178 175 170 175 176 185 177 177 180 183 186 179 176 178 184 189 197 211 213 203 197 204 221 284 300 306 301 297 300 307 310 322 338 327 311 306 299 296
242 173 161 157 153 154 170 136 137 156 162 172 176 182 189 189 186 188 188 185 189 192 185 173 179 207 174 136 349 349 356 352 346 332 314 286 280 308 322 325 322 316 312 310
138 139 123 110 102 99 110 115 111 116 125 133 146 160 179 198 204 189 185 190 196 196 197 176 171 169 178 116 54 18 360 358 359 344 350 344 329 326 317 310 304 298 304 309
124 118 104 85 79 98 110 133 123 118 121 122 119 126 131 147 160 160 176 185 193 177 189 175 184 197 187 244 16 327 301 306 317 333 326 323 320 323 325 322 317 315 311 308
115 112 110 104 169 135 131 125 118 118 119 114 113 110 106 107 109 115 119 131 133 94 104 81 69 62 69 9 339 317 307 291 276 274 296 307 309 309 305 302 303 301 301 301
Wind_Speed_850mb
21 18 16 9 16 19 14 11 8 8 14 16 10 9 31 29 37 45 43 41 49 32 45 38 33 29 25 21 22 22 21 18 14 12 12 6 3 1 4 8 11 14 15 16
8 7 19 21 26 21 15 11 10 7 15 9 5 8 28 27 33 37 40 42 43 33 33 34 34 33 29 28 29 32 30 26 24 24 21 13 7 6 7 6 7 11 11 13
9 5 8 9 26 26 16 16 10 13 7 5 2 13 28 31 32 34 39 42 42 40 36 34 31 31 32 28 33 37 38 37 37 34 30 23 13 13 11 8 6 7 9 10
4 5 12 4 7 9 16 7 14 16 7 7 6 13 23 22 31 35 41 46 41 41 37 35 35 31 28 25 28 28 32 41 44 42 39 31 22 20 16 12 9 6 6 7
7 16 5 7 5 3 7 13 8 8 5 8 24 23 12 19 25 36 42 43 39 37 34 28 26 23 19 19 19 26 29 31 39 44 38 37 28 26 22 17 13 11 9 9
5 14 21 7 8 7 3 10 10 8 13 23 26 17 12 25 32 42 45 42 38 36 30 24 23 17 17 14 19 22 24 26 27 34 36 41 35 31 27 22 16 11 11 12
14 11 6 1 8 4 16 2 5 6 16 30 21 3 24 32 35 37 39 38 35 29 22 17 12 12 12 12 12 9 7 9 12 26 37 43 39 33 29 25 21 16 13 15
8 13 19 5 3 10 9 15 8 7 18 25 25 25 39 35 39 40 39 36 30 24 19 14 13 11 9 10 5 2 1 0 5 18 29 38 39 33 32 29 25 21 19 15
9 6 5 6 11 14 17 21 9 10 21 33 36 39 43 42 39 34 31 29 23 18 13 12 13 11 9 6 4 4 6 6 6 4 15 23 36 35 40 35 31 28 21 20
5 4 8 10 10 9 15 15 12 13 27 29 29 37 47 44 37 32 29 24 20 17 15 14 12 10 8 8 9 11 9 8 6 9 9 12 20 20 18 14 13 16 18 18
7 12 12 10 4 11 9 5 6 18 21 22 29 38 43 42 35 28 22 21 18 15 13 12 12 11 11 13 15 13 14 15 15 13 12 10 14 16 16 19 16 13 14 12
3 12 6 6 2 8 8 7 10 16 19 17 26 41 35 31 25 20 21 20 19 16 14 16 15 15 17 19 21 18 20 24 25 25 23 21 16 16 15 15 15 18 17 13
11 22 12 12 2 5 4 3 7 9 10 24 26 25 26 25 21 18 18 20 19 20 22 20 20 20 22 24 26 27 28 30 30 29 28 26 24 19 16 20 19 19 20 19
16 9 3 8 6 5 4 5 7 9 14 18 19 22 20 17 15 14 17 20 21 23 23 19 21 21 24 28 30 32 37 37 37 36 34 31 28 24 20 16 13 15 18 20
15 16 7 8 7 5 1 6 6 9 17 22 22 19 17 15 16 16 22 22 24 23 21 20 22 29 34 39 41 44 44 44 44 44 43 39 36 33 27 20 14 12 15 16
29 17 12 7 4 5 4 5 5 9 17 20 19 17 15 17 20 21 22 21 24 22 22 26 33 39 44 45 46 45 43 42 41 39 37 34 30 27 27 24 15 9 11 12
17 16 14 9 8 10 10 7 8 11 16 18 18 16 17 22 23 22 23 22 21 22 30 35 39 41 43 42 39 36 33 30 26 23 20 18 16 13 13 13 13 9 6 11
20 23 27 25 19 17 15 15 11 17 17 17 17 16 19 22 24 24 22 21 28 34 35 38 36 36 38 36 31 24 19 15 12 9 8 9 9 10 9 7 5 4 2 7
21 28 32 32 31 26 19 20 22 22 23 24 20 17 19 23 26 28 27 28 35 38 41 40 36 33 30 27 22 15 8 0 5 9 13 17 20 18 17 14 13 12 12 11
23 26 34 42 41 33 24 22 25 27 32 31 26 25 27 27 30 31 30 30 32 31 42 39 35 28 22 16 12 11 12 12 13 18 23 28 31 29 25 20 17 14 16 15
28 23 26 28 32 32 26 22 25 28 35 38 31 28 28 30 32 34 35 33 39 41 41 35 28 21 15 12 13 13 15 19 20 20 26 30 34 36 31 28 25 22 19 21
26 25 23 22 27 28 18 14 19 23 29 40 35 29 32 36 38 35 33 37 44 43 38 32 28 22 15 13 6 5 6 12 17 20 23 27 30 30 25 26 27 28 32 35
24 22 17 22 27 24 21 25 28 27 32 34 38 34 34 36 37 37 43 40 37 34 34 33 34 30 24 10 5 8 14 19 22 22 20 22 20 8 4 7 14 23 31 35
9 18 27 31 30 23 18 18 21 21 24 31 35 32 28 33 38 35 35 35 33 32 33 34 31 28 22 4 4 9 11 15 18 20 19 14 9 10 17 22 24 26 31 33
21 34 44 45 44 34 26 33 34 30 28 26 24 21 18 18 30 39 41 35 33 34 28 21 20 17 7 6 6 9 13 14 17 16 14 12 16 19 23 27 30 31 31 31
53 55 42 31 33 31 27 24 41 36 24 32 27 21 18 21 31 36 34 34 28 22 22 16 14 8 10 2 10 13 17 17 15 15 15 18 21 25 25 24 26 26 27 28
42 29 31 26 3 19 29 37 40 37 33 37 50 46 39 32 28 23 19 14 14 13 15 19 15 12 7 7 12 16 17 16 19 18 20 26 31 35 36 35 36 37 38 37
Wind_Direction_850mb
259 247 253 240 184 189 209 165 233 172 211 266 337 240 200 181 168 165 165 166 169 187 170 181 188 196 206 211 212 211 201 191 193 215 240 252 297 46 124 88 71 66 71 75
273 264 219 232 222 201 232 184 269 235 259 268 48 143 175 178 175 174 170 174 182 184 184 188 199 214 220 223 228 231 225 213 214 228 238 235 218 202 179 129 83 77 76 77
252 347 144 226 229 207 207 191 195 204 249 354 81 200 169 168 178 167 164 173 182 188 194 203 212 219 229 223 225 232 233 231 231 228 235 232 219 208 193 168 136 110 102 93
237 208 216 56 318 242 226 218 210 280 315 308 85 120 136 166 172 164 173 181 182 188 197 206 219 220 231 228 232 234 239 233 236 239 228 225 222 210 200 186 170 154 138 123
237 212 312 158 111 206 226 187 208 240 127 133 140 130 99 156 168 172 177 181 178 184 191 198 210 219 236 259 255 249 243 243 236 240 229 220 221 213 200 195 188 175 164 128
174 232 223 183 133 11 245 227 165 193 164 161 170 193 156 158 174 170 172 178 178 184 188 205 213 222 235 236 242 243 243 244 239 236 225 217 218 214 206 197 195 184 161 155
214 246 264 128 338 135 200 234 10 221 188 172 175 257 161 163 160 166 170 172 176 181 187 195 203 211 218 221 222 223 242 252 226 220 222 218 213 213 209 209 203 194 192 174
195 223 244 40 197 225 351 319 315 199 171 154 145 146 154 161 163 167 164 162 170 176 180 182 189 190 196 197 186 133 161 306 205 222 220 212 216 211 210 209 203 198 192 185
237 210 26 315 287 299 304 279 293 210 176 166 152 152 159 159 164 165 165 165 167 175 178 171 174 175 172 156 108 92 89 104 127 195 212 216 214 213 205 198 198 194 191 178
275 175 275 301 296 309 309 276 279 215 177 175 166 161 165 160 161 163 158 158 165 167 165 160 147 137 130 111 98 86 92 104 120 164 179 204 201 188 191 201 202 190 176 167
271 277 291 263 292 339 351 10 174 168 168 174 165 157 160 162 162 159 160 160 158 157 148 138 128 120 115 112 102 93 99 103 105 111 116 140 164 166 166 166 161 163 166 166
339 332 300 345 33 7 28 62 133 164 164 164 166 159 164 158 157 158 158 157 149 139 128 124 117 110 110 111 105 108 115 116 113 110 112 116 117 136 145 150 160 154 152 157
291 320 275 320 44 355 350 38 92 121 152 153 157 162 158 157 155 156 154 147 140 132 121 117 117 118 113 116 116 118 120 116 111 111 112 109 107 105 120 123 124 137 141 140
339 357 332 22 5 39 54 133 126 138 151 160 160 157 159 161 155 151 150 144 138 135 131 133 127 121 126 123 121 118 113 110 108 103 98 94 92 94 98 103 123 136 138 144
324 304 308 343 339 350 83 160 137 165 167 161 163 168 174 177 161 154 159 149 143 139 139 138 136 131 126 121 120 116 111 105 100 94 90 88 85 81 78 84 105 129 142 149
299 300 248 278 349 1 279 224 193 176 175 176 175 172 173 166 159 155 166 157 155 154 155 147 138 132 129 127 124 117 111 104 99 94 89 84 80 76 70 66 71 107 147 162
300 284 280 294 325 308 341 309 237 210 189 193 185 179 171 161 155 160 163 159 162 158 146 142 137 133 134 133 127 122 117 110 99 88 81 75 69 59 53 53 53 69 170 176
278 262 268 276 281 303 283 260 217 203 206 197 193 186 176 172 167 163 163 160 152 149 147 144 142 138 140 143 140 132 123 111 98 77 43 14 353 345 340 324 303 351 287 220
277 265 264 270 273 266 274 249 234 222 211 205 196 187 175 174 174 171 172 165 157 157 157 156 153 150 148 148 149 149 151 169 321 324 322 314 308 303 302 301 279 266 260 260
279 266 261 260 258 251 254 251 242 237 217 199 188 181 175 174 177 175 177 168 168 169 164 161 159 158 161 173 194 224 248 269 288 307 313 311 302 292 286 275 271 265 254 252
279 265 264 256 238 225 239 247 245 225 212 192 188 182 175 174 175 180 174 171 170 169 167 169 170 177 197 229 252 267 266 277 280 286 295 299 296 296 272 265 263 261 259 256
280 271 270 253 214 208 220 211 190 187 197 182 180 179 175 175 177 180 182 180 173 175 178 184 191 200 213 220 259 271 291 290 294 301 307 313 309 296 283 267 265 276 278 275
270 261 234 191 182 180 178 175 170 175 176 185 177 177 180 183 186 179 176 178 184 189 197 211 213 203 197 204 221 284 300 306 301 297 300 307 310 322 338 327 311 306 299 296
242 173 161 157 153 154 170 136 137 156 162 172 176 182 189 189 186 188 188 185 189 192 185 173 179 207 174 136 349 349 356 352 346 332 314 286 280 308 322 325 322 316 312 310
138 139 123 110 102 99 110 115 111 116 125 133 146 160 179 198 204 189 185 190 196 196 197 176 171 169 178 116 54 18 360 358 359 344 350 344 329 326 317 310 304 298 304 309
124 118 104 85 79 98 110 133 123 118 121 122 119 126 131 147 160 160 176 185 193 177 189 175 184 197 187 244 16 327 301 306 317 333 326 323 320 323 325 322 317 315 311 308
115 112 110 104 169 135 131 125 118 118 119 114 113 110 106 107 109 115 119 131 133 94 104 81 69 62 69 9 339 317 307 291 276 274 296 307 309 309 305 302 303 301 301 301